This is the latest recevied weather packets stored in our database for station/object WE3WEE. If no packets are shown the sender has not sent any weather packets the latest 10 day(s).
| Time | Temp. | Humidity | Pressure | Rain* | Wind** | Luminosity | Snow |
|---|---|---|---|---|---|---|---|
| 1777747813 | 11.67° C | 45% | 1012.8 hPa | 0 mm | - | - | - |
| 1777747508 | 11.67° C | 50% | 1013.8 hPa | 0 mm | - | - | - |
| 1777747205 | 12.22° C | 43% | 1013.8 hPa | 0 mm | - | - | - |
| 1777746901 | 12.22° C | 45% | 1013.8 hPa | 0 mm | - | - | - |
| 1777746596 | 11.67° C | 43% | 1012.8 hPa | 0 mm | - | - | - |
| 1777746292 | 11.67° C | 46% | 1012.8 hPa | 0 mm | - | - | - |
| 1777745989 | 11.67° C | 45% | 1012.8 hPa | 0 mm | - | - | - |
| 1777745687 | 11.67° C | 53% | 1013.8 hPa | 0 mm | - | - | - |
| 1777745385 | 11.67° C | 50% | 1013.8 hPa | 0 mm | - | - | - |
| 1777745082 | 11.11° C | 46% | 1013.8 hPa | 0 mm | - | - | - |
| 1777744778 | 11.67° C | 47% | 1012.8 hPa | 0 mm | - | - | - |
| 1777744472 | 11.67° C | 52% | 1012.8 hPa | 0 mm | - | - | - |
| 1777744169 | 11.67° C | 51% | 1012.8 hPa | 0 mm | - | - | - |
| 1777743866 | 12.22° C | 47% | 1013.8 hPa | 0 mm | - | - | - |
| 1777743562 | 11.67° C | 44% | 1013.8 hPa | 0 mm | - | - | - |
| 1777743259 | 11.67° C | 46% | 1013.8 hPa | 0 mm | - | - | - |
| 1777742958 | 11.67° C | 45% | 1012.8 hPa | 0 mm | - | - | - |
| 1777742655 | 11.11° C | 45% | 1012.8 hPa | 0 mm | - | - | - |
| 1777742351 | 11.11° C | 51% | 1012.8 hPa | 0 mm | - | - | - |
| 1777742047 | 11.11° C | 47% | 1013.8 hPa | 0 mm | - | - | - |
| 1777741745 | 11.11° C | 45% | 1013.8 hPa | 0 mm | - | - | - |
| 1777741441 | 11.11° C | 49% | 1013.8 hPa | 0 mm | - | - | - |
| 1777741136 | 11.11° C | 43% | 1013.8 hPa | 0 mm | - | - | - |
| 1777740834 | 10.56° C | 51% | 1013.8 hPa | 0 mm | - | - | - |
| 1777740531 | 10.56° C | 48% | 1013.8 hPa | 0 mm | - | - | - |
* Rain latest hour (hover to see other rain measurements)
** Current wind speed in m/s (hover to see current wind gust speed)